Weather History for KOZW - November, 2012

Change the Weather History Date:

Wednesday, November 21, 2012

  Actual Average Record
Temperature  
Mean Temperature 44 °F -  
Max Temperature 57 °F 45 °F 57 °F (2010)
Min Temperature 32 °F 32 °F 5 °F (2014)
Degree Days  
Heating Degree Days 20    
Moisture  
Dew Point 37 °F    
Average Humidity 76    
Maximum Humidity 94    
Minimum Humidity 48    
Precipitation  
Precipitation 0.00 in - - ()
Sea Level Pressure  
Sea Level Pressure 30.17 in    
Wind  
Wind Speed 2 mph (SSW)    
Max Wind Speed 9 mph    
Max Gust Speed -    
Visibility 5 miles    
Events Fog    
Averages and records for this station are not official NWS values.
T = Trace of Precipitation, MM = Missing Value Source: NWS Daily Summary

Daily Weather History Graph

Daily Weather History Graph

Search for Another Location

Airport or City:

Trip Planner

Search our weather history database for the weather conditions in past years. The results will help you decide how hot, cold, wet, or windy it might be!

Date:

Astronomy

Nov. 21, 2012 Rise Set
Actual Time 7:35 AM EST 5:08 PM EST
Civil Twilight 7:04 AM EST 5:39 PM EST
Nautical Twilight 6:29 AM EST 6:13 PM EST
Astronomical Twilight 5:56 AM EST 6:47 PM EST
Moon 1:31 PM EST (11/21) 12:45 AM EST (11/21)
Length of Visible Light 10h 34m
Length of Day
9h 32m
First Quarter, 61% of the Moon is Illuminated
Nov 21
First Quarter
Nov 28
Full
Dec 6
Last Quarter
Dec 13
New
Dec 20
First Quarter

Hourly Weather History & Observations

Time (EST) Temp. Windchill Dew Point Humidity Pressure Visibility Wind Dir Wind Speed Gust Speed Precip Events Conditions
12:14 AM 43.2 °F - 39.2 °F 86% 30.15 in 4.0 mi Calm Calm - N/A   Overcast
12:35 AM 43.7 °F - 39.7 °F 86% 30.15 in 5.0 mi Calm Calm - N/A   Overcast
12:54 AM 43.3 °F - 39.2 °F 85% 30.15 in 5.0 mi Calm Calm - N/A   Overcast
1:15 AM 42.8 °F - 38.3 °F 84% 30.15 in 5.0 mi Calm Calm - N/A   Haze
1:35 AM 41.9 °F - 38.1 °F 86% 30.15 in 5.0 mi Calm Calm - N/A   Scattered Clouds
1:54 AM 41.2 °F - 37.6 °F 87% 30.15 in 4.0 mi Calm Calm - N/A   Clear
2:15 AM 41.2 °F - 37.6 °F 87% 30.15 in 3.0 mi Calm Calm - N/A   Mist
2:34 AM 37.8 °F - 34.7 °F 89% 30.16 in 1.8 mi Calm Calm - N/A   Mist
2:55 AM 39.2 °F - 36.5 °F 90% 30.17 in 0.8 mi Calm Calm - N/A   Mist
3:15 AM 39.2 °F - 36.7 °F 91% 30.17 in 1.2 mi Calm Calm - N/A   Mist
3:34 AM 38.3 °F - 36.0 °F 91% 30.17 in 1.0 mi Calm Calm - N/A   Mist
3:55 AM 37.0 °F - 34.7 °F 91% 30.17 in 0.5 mi Calm Calm - N/A Fog Fog
4:15 AM 36.9 °F - 34.7 °F 92% 30.17 in 2.0 mi Calm Calm - N/A   Mist
4:34 AM 36.7 °F - 34.5 °F 92% 30.17 in 1.0 mi Calm Calm - N/A   Mist
4:55 AM 34.9 °F - 32.9 °F 92% 30.18 in 0.8 mi Calm Calm - N/A   Mostly Cloudy
5:15 AM 34.2 °F 31.2 °F 32.2 °F 92% 30.17 in 2.5 mi ESE 3.5 mph - N/A   Mist
5:34 AM 32.9 °F 28.5 °F 31.5 °F 94% 30.17 in 2.5 mi SE 4.6 mph - N/A   Clear
5:55 AM 34.7 °F 30.6 °F 32.7 °F 92% 30.17 in 2.5 mi SE 4.6 mph - N/A   Clear
6:14 AM 34.7 °F - 32.9 °F 93% 30.17 in 2.0 mi Calm Calm - N/A   Clear
6:35 AM 35.6 °F - 33.6 °F 92% 30.18 in 1.8 mi Calm Calm - N/A   Mist
6:55 AM 35.2 °F - 33.3 °F 92% 30.19 in 0.2 mi Calm Calm - N/A Fog Fog
7:14 AM 34.5 °F - 32.5 °F 92% 30.20 in 0.5 mi Calm Calm - N/A Fog Fog
7:35 AM 35.1 °F - 33.1 °F 92% 30.20 in 1.5 mi Calm Calm - N/A   Mist
7:55 AM 34.5 °F - 32.5 °F 92% 30.20 in 0.2 mi Calm Calm - N/A Fog Fog
8:14 AM 34.0 °F - 32.0 °F 92% 30.21 in 0.5 mi Calm Calm - N/A Fog Fog
8:35 AM 35.1 °F - 33.1 °F 92% 30.21 in 1.8 mi Calm Calm - N/A   Mist
8:54 AM 38.5 °F - 36.5 °F 93% 30.22 in 1.5 mi Calm Calm - N/A   Mist
9:14 AM 40.3 °F - 37.9 °F 91% 30.22 in 1.5 mi Calm Calm - N/A   Mist
9:35 AM 41.9 °F 40.0 °F 39.2 °F 90% 30.23 in 2.5 mi SW 3.5 mph - N/A   Mist
9:54 AM 43.5 °F 41.9 °F 39.9 °F 87% 30.23 in 3.0 mi SSW 3.5 mph - N/A   Mist
10:15 AM 45.7 °F 44.4 °F 40.3 °F 81% 30.23 in 4.0 mi SW 3.5 mph - N/A   Haze
10:35 AM 46.9 °F - 40.3 °F 78% 30.23 in 4.0 mi Calm Calm - N/A   Haze
10:54 AM 48.4 °F - 40.1 °F 73% 30.23 in 5.0 mi SSW 3.5 mph - N/A   Haze
11:15 AM 50.2 °F - 40.5 °F 69% 30.23 in 5.0 mi Calm Calm - N/A   Haze
11:35 AM 52.5 °F - 40.1 °F 63% 30.22 in 7.0 mi South 3.5 mph - N/A   Clear
11:54 AM 53.6 °F - 40.1 °F 60% 30.21 in 7.0 mi South 3.5 mph - N/A   Clear
12:15 PM 55.0 °F - 38.5 °F 54% 30.20 in 10.0 mi SSW 6.9 mph - N/A   Clear
12:35 PM 55.4 °F - 38.1 °F 52% 30.20 in 10.0 mi SW 8.1 mph - N/A   Clear
12:54 PM 56.1 °F - 37.9 °F 51% 30.20 in 10.0 mi SW 8.1 mph - N/A   Clear
1:15 PM 56.1 °F - 37.4 °F 49% 30.18 in 7.0 mi SW 8.1 mph - N/A   Clear
1:35 PM 57.2 °F - 37.8 °F 48% 30.18 in 10.0 mi WSW 9.2 mph - N/A   Clear
1:54 PM 57.2 °F - 38.5 °F 50% 30.18 in 10.0 mi WSW 8.1 mph - N/A   Clear
2:15 PM 57.4 °F - 38.3 °F 49% 30.18 in 10.0 mi WSW 8.1 mph - N/A   Clear
2:35 PM 56.7 °F - 38.5 °F 51% 30.17 in 10.0 mi WSW 6.9 mph - N/A   Clear
2:55 PM 57.0 °F - 39.0 °F 51% 30.17 in 7.0 mi WSW 6.9 mph - N/A   Clear
3:15 PM 57.0 °F - 38.8 °F 51% 30.16 in 10.0 mi West 6.9 mph - N/A   Clear
3:34 PM 56.7 °F - 39.0 °F 52% 30.16 in 10.0 mi SW 6.9 mph - N/A   Clear
3:55 PM 55.8 °F - 38.8 °F 53% 30.15 in 10.0 mi SSW 6.9 mph - N/A   Clear
4:15 PM 54.7 °F - 39.0 °F 56% 30.15 in 10.0 mi SW 4.6 mph - N/A   Clear
4:34 PM 54.0 °F - 39.0 °F 57% 30.15 in 10.0 mi SW 3.5 mph - N/A   Clear
4:55 PM 52.9 °F - 38.7 °F 58% 30.15 in 10.0 mi West 4.6 mph - N/A   Clear
5:15 PM 52.0 °F - 38.7 °F 60% 30.16 in 10.0 mi West 4.6 mph - N/A   Clear
5:34 PM 51.1 °F - 38.5 °F 62% 30.16 in 10.0 mi Calm Calm - N/A   Clear
5:55 PM 51.1 °F - 38.7 °F 63% 30.16 in 10.0 mi Calm Calm - N/A   Clear
6:15 PM 50.4 °F - 38.8 °F 65% 30.15 in 7.0 mi SSW 3.5 mph - N/A   Clear
6:34 PM 49.6 °F - 38.5 °F 65% 30.16 in 10.0 mi SSW 3.5 mph - N/A   Clear
6:55 PM 49.3 °F - 38.1 °F 65% 30.16 in 7.0 mi SSW 3.5 mph - N/A   Clear
7:14 PM 48.2 °F - 37.8 °F 67% 30.15 in 10.0 mi SSW 3.5 mph - N/A   Clear
7:35 PM 47.3 °F - 37.8 °F 69% 30.15 in 7.0 mi SSW 4.6 mph - N/A   Clear
7:55 PM 47.3 °F - 38.3 °F 71% 30.15 in 7.0 mi SW 3.5 mph - N/A   Clear
8:14 PM 47.3 °F - 38.5 °F 71% 30.15 in 7.0 mi SSW 3.5 mph - N/A   Clear
8:35 PM 46.6 °F - 38.8 °F 74% 30.15 in 7.0 mi SSW 3.5 mph - N/A   Clear
8:55 PM 46.4 °F 44.3 °F 38.8 °F 75% 30.15 in 7.0 mi SSW 4.6 mph - N/A   Clear
9:14 PM 45.1 °F 43.7 °F 38.5 °F 77% 30.15 in 5.0 mi SSW 3.5 mph - N/A   Haze
9:35 PM 44.6 °F 43.1 °F 38.7 °F 80% 30.16 in 5.0 mi SSW 3.5 mph - N/A   Haze
9:54 PM 44.8 °F - 39.0 °F 80% 30.16 in 5.0 mi Calm Calm - N/A   Haze
10:15 PM 43.7 °F 41.1 °F 38.5 °F 82% 30.15 in 5.0 mi SSW 4.6 mph - N/A   Haze
10:34 PM 43.3 °F 40.7 °F 38.7 °F 84% 30.15 in 4.0 mi SSW 4.6 mph - N/A   Clear
10:55 PM 43.3 °F 40.7 °F 39.2 °F 85% 30.15 in 4.0 mi SSW 4.6 mph - N/A   Clear
11:15 PM 43.2 °F 41.5 °F 39.2 °F 86% 30.15 in 4.0 mi SSW 3.5 mph - N/A   Clear
11:34 PM 43.0 °F 41.3 °F 39.2 °F 86% 30.15 in 3.0 mi SSW 3.5 mph - N/A   Clear
11:55 PM 41.9 °F 39.0 °F 38.3 °F 87% 30.15 in 3.0 mi South 4.6 mph - N/A   Clear